• In Austria
  • List of Countries
  • For 7 days
  • Water Temperature
  • Satellite Maps
  • Weather Map
  • News
  • Weather Widgets
  • user-avatar
    Login

    Hourly Weather Turgutlu

    Today, 18 November, Saturday

    Time Temperature Precipitation Wind Pressure Humidity
    00:00 +15°C° 0 mm 1 mps 752 mmHg 56%
    01:00 +15°C° 0 mm 1 mps 752 mmHg 57%
    02:00 +14°C° 0 mm 3 mps 752 mmHg 63%
    03:00 +15°C° 0 mm 2 mps 752 mmHg 64%
    04:00 +14°C° 0 mm 2 mps 752 mmHg 66%
    05:00 +14°C° 0 mm 1 mps 752 mmHg 67%
    06:00 +14°C° 0 mm 1 mps 752 mmHg 65%
    07:00 +15°C° 0 mm 1 mps 752 mmHg 63%
    08:00 +16°C° 0 mm 2 mps 752 mmHg 57%
    09:00 +18°C° 0 mm 2 mps 751 mmHg 50%
    10:00 +19°C° 0 mm 2 mps 751 mmHg 44%
    11:00 +21°C° 0 mm 2 mps 751 mmHg 38%
    12:00 +23°C° 0 mm 2 mps 751 mmHg 36%
    13:00 +23°C° 0 mm 2 mps 751 mmHg 35%
    14:00 +24°C° 0 mm 3 mps 750 mmHg 34%
    15:00 +23°C° 0 mm 2 mps 750 mmHg 40%
    16:00 +20°C° 0 mm 2 mps 750 mmHg 46%
    17:00 +19°C° 0 mm 1 mps 750 mmHg 52%
    18:00 +19°C° 0.1 mm 1 mps 750 mmHg 57%
    19:00 +18°C° 0.1 mm 1 mps 750 mmHg 61%
    20:00 +16°C° 0.1 mm 1 mps 750 mmHg 66%
    21:00 +16°C° 0.1 mm 1 mps 750 mmHg 68%
    22:00 +16°C° 0.1 mm 1 mps 750 mmHg 69%
    23:00 +15°C° 0.1 mm 1 mps 750 mmHg 71%

    Tomorrow, 19 November, Sunday

    Time Temperature Precipitation Wind Pressure Humidity
    00:00 +15°C° 0.5 mm 1 mps 750 mmHg 73%
    01:00 +15°C° 0.5 mm 1 mps 750 mmHg 76%
    02:00 +15°C° 0.5 mm 1 mps 750 mmHg 78%
    03:00 +14°C° 0.2 mm 1 mps 750 mmHg 79%
    04:00 +14°C° 0.2 mm 1 mps 749 mmHg 80%
    05:00 +14°C° 0.2 mm 1 mps 749 mmHg 81%
    06:00 +14°C° 0 mm 1 mps 749 mmHg 80%
    07:00 +14°C° 0 mm 1 mps 750 mmHg 80%
    08:00 +14°C° 0 mm 2 mps 750 mmHg 79%
    09:00 +16°C° 0 mm 2 mps 750 mmHg 70%
    10:00 +18°C° 0 mm 2 mps 750 mmHg 61%
    11:00 +20°C° 0 mm 3 mps 750 mmHg 53%
    12:00 +20°C° 0 mm 3 mps 749 mmHg 51%
    13:00 +21°C° 0 mm 4 mps 749 mmHg 49%
    14:00 +21°C° 0 mm 4 mps 748 mmHg 47%
    15:00 +20°C° 0.1 mm 4 mps 748 mmHg 53%
    16:00 +18°C° 0.1 mm 3 mps 748 mmHg 59%
    17:00 +17°C° 0.1 mm 3 mps 748 mmHg 66%
    18:00 +17°C° 0.2 mm 3 mps 748 mmHg 69%
    19:00 +16°C° 0.2 mm 3 mps 749 mmHg 73%
    20:00 +16°C° 0.2 mm 3 mps 749 mmHg 77%
    21:00 +14°C° 0.4 mm 3 mps 749 mmHg 79%
    22:00 +14°C° 0.4 mm 3 mps 749 mmHg 82%
    23:00 +14°C° 0.4 mm 3 mps 749 mmHg 84%

    Day after tomorrow, 20 November, Monday

    Time Temperature Precipitation Wind Pressure Humidity
    00:00 +14°C° 0.3 mm 2 mps 749 mmHg 86%
    01:00 +14°C° 0.3 mm 2 mps 749 mmHg 89%
    02:00 +13°C° 0.3 mm 2 mps 749 mmHg 91%
    03:00 +13°C° 0.6 mm 2 mps 749 mmHg 92%
    04:00 +13°C° 0.6 mm 1 mps 749 mmHg 93%
    05:00 +13°C° 0.6 mm 1 mps 749 mmHg 94%
    06:00 +13°C° 0.4 mm 1 mps 749 mmHg 92%
    07:00 +13°C° 0.4 mm 2 mps 749 mmHg 91%
    08:00 +13°C° 0.4 mm 2 mps 749 mmHg 90%
    09:00 +14°C° 0.5 mm 3 mps 748 mmHg 81%
    10:00 +16°C° 0.5 mm 3 mps 748 mmHg 72%
    11:00 +17°C° 0.5 mm 4 mps 748 mmHg 64%
    12:00 +16°C° 0.8 mm 5 mps 748 mmHg 64%
    13:00 +16°C° 0.8 mm 6 mps 748 mmHg 63%
    14:00 +16°C° 0.8 mm 6 mps 747 mmHg 63%
    15:00 +15°C° 0.7 mm 5 mps 748 mmHg 67%
    16:00 +13°C° 0.7 mm 4 mps 748 mmHg 71%
    17:00 +12°C° 0.7 mm 3 mps 748 mmHg 76%
    18:00 +11°C° 0.6 mm 3 mps 749 mmHg 77%
    19:00 +11°C° 0.6 mm 3 mps 749 mmHg 78%
    20:00 +10°C° 0.6 mm 3 mps 750 mmHg 79%
    21:00 +10°C° 0.3 mm 3 mps 751 mmHg 80%
    22:00 +8°C° 0.3 mm 4 mps 751 mmHg 80%
    23:00 +7°C° 0.3 mm 5 mps 752 mmHg 81%

    21 November, Tuesday

    Time Temperature Precipitation Wind Pressure Humidity
    00:00 +7°C° 0.1 mm 5 mps 752 mmHg 80%
    01:00 +7°C° 0.1 mm 5 mps 753 mmHg 79%
    02:00 +6°C° 0.1 mm 4 mps 753 mmHg 78%
    03:00 +6°C° 0 mm 4 mps 753 mmHg 78%
    04:00 +6°C° 0 mm 4 mps 754 mmHg 77%
    05:00 +6°C° 0 mm 4 mps 754 mmHg 77%
    06:00 +5°C° 0 mm 3 mps 755 mmHg 77%
    07:00 +5°C° 0 mm 3 mps 755 mmHg 77%
    08:00 +5°C° 0 mm 3 mps 756 mmHg 77%
    09:00 +7°C° 0 mm 3 mps 756 mmHg 71%
    10:00 +8°C° 0 mm 3 mps 756 mmHg 64%
    11:00 +9°C° 0 mm 3 mps 756 mmHg 57%
    12:00 +10°C° 0 mm 3 mps 756 mmHg 52%
    13:00 +10°C° 0 mm 3 mps 756 mmHg 48%
    14:00 +11°C° 0 mm 3 mps 755 mmHg 43%
    15:00 +10°C° 0 mm 3 mps 755 mmHg 46%
    16:00 +9°C° 0 mm 3 mps 756 mmHg 49%
    17:00 +8°C° 0 mm 2 mps 756 mmHg 52%
    18:00 +7°C° 0 mm 2 mps 756 mmHg 55%
    19:00 +8°C° 0 mm 1 mps 756 mmHg 57%
    20:00 +7°C° 0 mm 1 mps 757 mmHg 59%
    21:00 +7°C° 0 mm 1 mps 757 mmHg 59%
    22:00 +7°C° 0 mm 1 mps 757 mmHg 60%
    23:00 +6°C° 0 mm 1 mps 757 mmHg 60%

    22 November, Wednesday

    Time Temperature Precipitation Wind Pressure Humidity
    00:00 +6°C° 0 mm 1 mps 757 mmHg 59%
    01:00 +6°C° 0 mm 1 mps 757 mmHg 58%
    02:00 +6°C° 0 mm 1 mps 757 mmHg 57%
    03:00 +6°C° 0 mm 1 mps 757 mmHg 56%
    04:00 +6°C° 0 mm 1 mps 757 mmHg 55%
    05:00 +6°C° 0 mm 1 mps 757 mmHg 54%
    06:00 +6°C° 0 mm 1 mps 757 mmHg 52%
    07:00 +7°C° 0 mm 1 mps 757 mmHg 51%
    08:00 +7°C° 0 mm 1 mps 757 mmHg 50%
    09:00 +9°C° 0 mm 1 mps 757 mmHg 45%
    10:00 +11°C° 0 mm 1 mps 757 mmHg 41%
    11:00 +13°C° 0 mm 1 mps 757 mmHg 36%
    12:00 +14°C° 0 mm 1 mps 757 mmHg 36%
    13:00 +15°C° 0 mm 1 mps 757 mmHg 37%
    14:00 +15°C° 0 mm 1 mps 756 mmHg 37%
    15:00 +14°C° 0 mm 1 mps 756 mmHg 41%
    16:00 +13°C° 0 mm 1 mps 757 mmHg 46%
    17:00 +12°C° 0 mm 1 mps 757 mmHg 50%
    18:00 +11°C° 0 mm 1 mps 757 mmHg 52%
    19:00 +11°C° 0 mm 1 mps 757 mmHg 54%
    20:00 +10°C° 0 mm 1 mps 758 mmHg 56%
    21:00 +10°C° 0 mm 1 mps 758 mmHg 57%
    22:00 +10°C° 0 mm 1 mps 758 mmHg 58%
    23:00 +9°C° 0 mm 1 mps 758 mmHg 59%

    23 November, Thursday

    Time Temperature Precipitation Wind Pressure Humidity
    00:00 +9°C° 0 mm 1 mps 758 mmHg 60%
    01:00 +9°C° 0 mm 1 mps 758 mmHg 62%
    02:00 +9°C° 0 mm 1 mps 758 mmHg 63%
    03:00 +9°C° 0 mm 1 mps 758 mmHg 64%
    04:00 +8°C° 0 mm 1 mps 758 mmHg 66%
    05:00 +8°C° 0 mm 1 mps 758 mmHg 67%
    06:00 +8°C° 0 mm 2 mps 759 mmHg 68%
    07:00 +8°C° 0 mm 2 mps 759 mmHg 68%
    08:00 +8°C° 0 mm 2 mps 759 mmHg 68%
    09:00 +10°C° 0 mm 2 mps 759 mmHg 62%
    10:00 +13°C° 0 mm 2 mps 759 mmHg 57%
    11:00 +15°C° 0 mm 2 mps 759 mmHg 51%
    12:00 +16°C° 0 mm 2 mps 759 mmHg 49%
    13:00 +16°C° 0 mm 3 mps 759 mmHg 46%
    14:00 +17°C° 0 mm 3 mps 758 mmHg 44%
    15:00 +14°C° 0 mm 3 mps 758 mmHg 49%
    16:00 +14°C° 0 mm 2 mps 759 mmHg 53%
    17:00 +13°C° 0 mm 2 mps 759 mmHg 58%
    18:00 +12°C° 0 mm 2 mps 759 mmHg 61%
    19:00 +10°C° 0 mm 2 mps 759 mmHg 65%
    20:00 +10°C° 0 mm 2 mps 760 mmHg 68%
    21:00 +9°C° 0 mm 2 mps 760 mmHg 70%
    22:00 +9°C° 0 mm 2 mps 760 mmHg 71%
    23:00 +9°C° 0 mm 2 mps 760 mmHg 73%
    Show more